Regional Weather Roundup
Issued by NWS

Home | Current Version | Previous Version | Graphics & Text | Print | Product List | Glossary On
Versions: 1 2 3 4 5 6 7 8 9 10 11 12 13 14 15 16 17 18 19 20 21 22 23 24 25 26 27 28 29 30 31 32 33 34 35 36 37 38 39 40 41 42 43 44 45 46 47 48 49 50
000
ASUS43 KMPX 240601
RWRMN
WEATHER ROUNDUP FOR MINNESOTA
NATIONAL WEATHER SERVICE TWIN CITIES/CHANHASSEN MN
100 AM CDT THU APR 24 2014


NOTE: "FAIR" INDICATES FEW OR NO CLOUDS BELOW 12,000 FEET WITH NO
SIGNIFICANT WEATHER AND/OR OBSTRUCTIONS TO VISIBILITY. N/A MEANS
CURRENT SKY AND/OR WEATHER CONDITIONS ARE NOT AVAILABLE.

MNZ060>063-068>070-240700-
   Twin Cities Metro

CITY           SKY/WX    TMP DP  RH WIND       PRES   REMARKS
TWIN CITIES    CLOUDY    43  38  82 E15       29.91F
6HR MIN TEMP:  42; 6HR MAX TEMP:  43; 6HR PCP:  0.07;

ST PAUL        CLOUDY    44  37  76 E10       29.94F
CRYSTAL        CLOUDY    44  36  73 E13       29.88F
BLAINE         CLOUDY    45  41  87 E13       29.90F
EDEN PRAIRIE   CLOUDY    45  37  73 E15       29.89F
6HR MIN TEMP:  42; 6HR MAX TEMP:  45; 6HR PCP:  0.04;

LAKEVILLE      CLOUDY    41  37  87 E14       29.90F
SOUTH ST PAUL  CLOUDY    47  38  71 E9        29.92F
LAKE ELMO      CLOUDY    43  37  81 E10       29.95S
$$
MNZ001>005-007-008-013>017-022>024-027-028-240700-
   Northwest Minnesota

CITY           SKY/WX    TMP DP  RH WIND       PRES   REMARKS
BEMIDJI        CLOUDY    33  32  98 E9        29.89S WCI  25
HALLOCK        CLOUDY    39  36  87 SE16      29.85F
ROSEAU         FAIR      37  34  87 E7        29.92F
WARROAD        MIX PCPN  37  34  87 E8        29.93F
THIEF RVR FALL CLOUDY    36  32  87 E18       29.87S
CROOKSTON      CLOUDY    37  37 100 SE9       29.85S
FOSSTON        CLOUDY    36  34  93 SE13G20   29.86S
DETROIT LAKES  MOCLDY    37  37 100 SE15G23   29.83S
MOORHEAD       CLOUDY    43  41  93 SE14      29.81S
PARK RAPIDS    CLOUDY    37  36  96 SE12      29.86F
$$
MNZ006-009>011-018-025>026-240700-
   North Central Minnesota

CITY           SKY/WX    TMP DP  RH WIND       PRES   REMARKS
BAUDETTE       CLOUDY    39  37  92 SE8G20    29.95F
FLAG ISLAND    DRIZZLE   36  34  93 S6        29.94F
INTL FALLS     LGT RAIN  40  34  79 SE12      29.99S
6HR MIN TEMP:  40; 6HR MAX TEMP:  52; 6HR PCP:  0.01;

WASKISH        RAIN      36  36 100 E14       29.94F
LONGVILLE      DRIZZLE   36  36 100 E7        29.91F
GRAND RAPIDS   CLOUDY    36  32  87 SE6       29.96F
CRANE LAKE     CLOUDY    39  28  65 S6G17     30.04S
ORR            LGT RAIN  34  30  86 E3        29.99F
COOK           LGT RAIN  34  34 100 E3        30.01F
$$
MNZ012-019>021-037-240700-
   Northeast Minnesota

CITY           SKY/WX    TMP DP  RH WIND       PRES   REMARKS
DULUTH         LGT RAIN  36  33  89 SE10      30.01S
6HR MIN TEMP:  35; 6HR MAX TEMP:  42; 6HR PCP:  0.20;

ELY            MOCLDY    39  21  48 S5        30.02S
HIBBING        LGT SNOW  34  32  92 SE8       29.99F FOG     WCI  27
EVELETH        MIX PCPN  34  32  93 E3        30.01F
DULUTH HARBOR  MIX PCPN  34  32  93 CALM      30.04F
TWO HARBORS    RAIN      34  30  86 NE3       30.02S
SILVER BAY     FAIR      34  30  86 CALM      30.03S
GRAND MARAIS     N/A     42  21  43 NE7       30.06S
G MARAIS ARPRT FAIR      37  16  41 E10       30.04F
$$
MNZ029>031-032-039>041-046>048-054>057-064-240700-
   West Central Minnesota

CITY           SKY/WX    TMP DP  RH WIND       PRES   REMARKS
FERGUS FALLS   CLOUDY    41  34  75 SE14      29.80S
WHEATON        CLOUDY    43  39  87 SE16      29.82S
MORRIS         MOCLDY    41  37  87 SE21      29.79S
ALEXANDRIA     CLOUDY    40  36  86 SE14      29.85R
ELBOW LAKE     CLOUDY    40  36  86 SE13G21   29.82R
WADENA         CLOUDY    37  36  93 SE15G21   29.85S
GLENWOOD       MOCLDY    39  37  93 E17       29.84R
APPLETON       CLOUDY    43  37  81 SE15G21   29.80R
BENSON         CLOUDY    43  36  75 SE13G22   29.82R
ORTONVILLE     CLOUDY    43  37  81 SE15G23   29.78S
MADISON        CLOUDY    46  39  76 SE15      29.78S
WILLMAR        CLOUDY    43  36  75 E21       29.83S
$$
MNZ033>034-036-042>043-049>051-058-059-240700-
   Central Minnesota

CITY           SKY/WX    TMP DP  RH WIND       PRES   REMARKS
ST CLOUD       CLOUDY    42  37  82 E8        29.88F
6HR MIN TEMP:  41; 6HR MAX TEMP:  42; 6HR PCP:  0.01;

SAUK CENTRE    CLOUDY    40  37  89 E12       29.85S
PAYNESVILLE    CLOUDY    41  37  83 E13G20    29.86R
AITKIN         CLOUDY    39  36  87 E6        29.92F
PINE RIVER     CLOUDY    37  36  93 E10       29.93F
BRAINERD       CLOUDY    43  36  76 SE12G21   29.90F
STAPLES        CLOUDY    37  36  93 SE8       29.86S
LONG PRAIRIE   CLOUDY    39  36  87 E16       29.86S
LITTLE FALLS   CLOUDY    39  36  87 E13       29.87F
LITCHFIELD     CLOUDY    43  39  87 E14G20    29.86S
BUFFALO        CLOUDY    42  37  79 E10G16    29.89S
MAPLE LAKE     CLOUDY    42  39  88 E7        29.89R
$$
MNZ037-044-045-052-053-240700-
   East Central Minnesota

CITY           SKY/WX    TMP DP  RH WIND       PRES   REMARKS
PRINCETON      CLOUDY    43  37  81 E9G17     29.91S
MORA           CLOUDY    37  34  87 E10G16    29.95F
CAMBRIDGE      CLOUDY    43  36  75 E9        29.91F
RUSH CITY      CLOUDY    40  37  89 E9        29.95R
MOOSE LAKE     RAIN      36  34  93 E5        29.96F
HINCKLEY       CLOUDY    39  37  93 E12       29.96F
CLOQUET        LGT RAIN  36  34  93 E8        29.99F
MCGREGOR       CLOUDY    37  36  93 E9        29.96F
$$
MNZ071>073-080-081-089-090-097-098-240700-
   Southwest Minnesota

CITY           SKY/WX    TMP DP  RH WIND       PRES   REMARKS
MONTEVIDEO     CLOUDY    43  39  87 S18       29.80S
GRANITE FALLS  CLOUDY    42  37  80 E12G18    29.81F
CANBY          CLOUDY    43  39  86 SE14      29.77F
MARSHALL       MOCLDY    45  36  70 SE15G22   29.77S
REDWOOD FALLS  CLOUDY    44  37  76 E13       29.81S
OLIVIA         MOCLDY    43  36  75 E15       29.81S
PIPESTONE      CLOUDY    45  39  81 SE15      29.70F
WINDOM         CLOUDY    43  39  87 E14G21    29.78R
WORTHINGTON    MOCLDY    43  36  75 SE12      29.75R
JACKSON        LGT RAIN  43  37  81 SE21G29   29.74F
TRACY          CLOUDY    44  38  79 SE10      29.77F
SLAYTON        CLOUDY    42  39  88 E14       29.75S
$$
MNZ065>067-074>077-082>085-091>093-240700-
   South Central Minnesota

CITY           SKY/WX    TMP DP  RH WIND       PRES   REMARKS
MANKATO        CLOUDY    45  36  70 SE14      29.86S
NEW ULM        MOCLDY    45  37  76 SE13G18   29.83F
ST JAMES       CLOUDY    45  39  81 E10       29.82S
FAIRMONT       CLOUDY    45  37  76 SE22      29.80F
GLENCOE        CLOUDY    43  36  78 E14G21    29.85F
FARIBAULT      CLOUDY    48  34  57 E12G17    29.89R
OWATONNA       CLOUDY    46  36  66 SE20G30   29.86S
WASECA         CLOUDY    43  32  65 SE17G24   29.88R
ALBERT LEA     RAIN      43  39  87 SE22G32   29.85F
$$
MNZ078>079-086>088-094>096-240700-
   Southeast Minnesota

CITY           SKY/WX    TMP DP  RH WIND       PRES   REMARKS
ROCHESTER      CLOUDY    44  35  70 SE22      29.90F
6HR MIN TEMP:  44; 6HR MAX TEMP:  45; 6HR PCP: TRACE;

RED WING       CLOUDY    46  37  71 SE12G20   29.93S
STANTON        CLOUDY    44  37  76 E12G20    29.90S
DODGE CENTER   CLOUDY    46  37  71 SE22G31   29.88S
WINONA         CLOUDY    45  39  81 SE14      29.98S
AUSTIN         DRIZZLE   45  37  76 SE18G26   29.88S
PRESTON        CLOUDY    43  38  80 SE14G20   29.93F
$$
ABBREVIATIONS USED IN REMARKS
   TC - TEMPERATURES IN CELSIUS
  WCI - WIND CHILL INDEX
   HX - HEAT INDEX
  VSB - VISIBILITY
$$



USA.gov is the U.S. government's official web portal to all federal, state and local government web resources and services.